"Sample Date","Sample Time","Sensor Name","Sample Value","Units","Flow Rate","Sample Interval","Sample Volume","Laser Status","Number Channels","Micron Size 0","Counts/Channel 0","Micron Size 1","Counts/Channel 1","Micron Size 2","Counts/Channel 2","Micron Size 3","Counts/Channel 3","Micron Size 4","Counts/Channel 4","Micron Size 5","Counts/Channel 5","Micron Size 6","Counts/Channel 6","Micron Size 7","Counts/Channel 7","Micron Size 8","Counts/Channel 8","Micron Size 9","Counts/Channel 9","Micron Size 10","Counts/Channel 10","Micron Size 11","Counts/Channel 11","Micron Size 12","Counts/Channel 12","Micron Size 13","Counts/Channel 13","Micron Size 14","Counts/Channel 14","Micron Size 15","Counts/Channel 15","Micron Size 16","Counts/Channel 16","Micron Size 17","Counts/Channel 17","Micron Size 18","Counts/Channel 18","Micron Size 19","Counts/Channel 19","Micron Size 20","Counts/Channel 20","Micron Size 21","Counts/Channel 21","Micron Size 22","Counts/Channel 22","Micron Size 23","Counts/Channel 23","Micron Size 24","Counts/Channel 24","Micron Size 25","Counts/Channel 25","Micron Size 26","Counts/Channel 26","Micron Size 27","Counts/Channel 27","Micron Size 28","Counts/Channel 28","Micron Size 29","Counts/Channel 29","Micron Size 30","Counts/Channel 30","Micron Size 31","Counts/Channel 31"
"07/09/06","21:00:05","AMMA06",26932.000,"cc",28340.531,6.00,2834.053,1,6,0.100,16788.000,0.200,8909.000,0.300,1098.000,0.500,92.000,1.000,45.000,5.000,0
"07/09/06","21:00:11","AMMA06",27092.000,"cc",28274.596,6.00,2827.460,1,6,0.100,16985.000,0.200,8859.000,0.300,1091.000,0.500,97.000,1.000,60.000,5.000,0
"07/09/06","21:00:17","AMMA06",27419.000,"cc",28344.215,6.00,2834.422,1,6,0.100,17148.000,0.200,9001.000,0.300,1121.000,0.500,106.000,1.000,43.000,5.000,0
"07/09/06","21:00:23","AMMA06",26853.000,"cc",28305.818,6.00,2830.582,1,6,0.100,16826.000,0.200,8891.000,0.300,1027.000,0.500,71.000,1.000,38.000,5.000,0
"07/09/06","21:00:29","AMMA06",26918.000,"cc",28331.947,6.00,2833.195,1,6,0.100,16744.000,0.200,8912.000,0.300,1142.000,0.500,89.000,1.000,31.000,5.000,0
"07/09/06","21:00:35","AMMA06",27006.000,"cc",28353.670,6.00,2835.367,1,6,0.100,16820.000,0.200,8959.000,0.300,1082.000,0.500,97.000,1.000,48.000,5.000,0
"07/09/06","21:00:41","AMMA06",26774.000,"cc",28337.861,6.00,2833.786,1,6,0.100,16779.000,0.200,8756.000,0.300,1087.000,0.500,101.000,1.000,51.000,5.000,0
"07/09/06","21:00:47","AMMA06",26849.000,"cc",28320.313,6.00,2832.032,1,6,0.100,16783.000,0.200,8800.000,0.300,1110.000,0.500,94.000,1.000,62.000,5.000,0
"07/09/06","21:00:53","AMMA06",27305.000,"cc",28290.727,6.00,2829.073,1,6,0.100,17004.000,0.200,9045.000,0.300,1141.000,0.500,80.000,1.000,35.000,5.000,0
"07/09/06","21:00:59","AMMA06",27482.000,"cc",28287.315,6.00,2828.732,1,6,0.100,17094.000,0.200,9124.000,0.300,1135.000,0.500,84.000,1.000,45.000,5.000,0
"07/09/06","21:01:05","AMMA06",27653.000,"cc",28294.164,6.00,2829.417,1,6,0.100,17199.000,0.200,9171.000,0.300,1161.000,0.500,87.000,1.000,35.000,5.000,0
"07/09/06","21:01:11","AMMA06",27498.000,"cc",28306.773,6.00,2830.678,1,6,0.100,17121.000,0.200,9148.000,0.300,1103.000,0.500,90.000,1.000,36.000,5.000,0
"07/09/06","21:01:17","AMMA06",27627.000,"cc",28338.451,6.00,2833.845,1,6,0.100,17125.000,0.200,9234.000,0.300,1131.000,0.500,90.000,1.000,47.000,5.000,0
"07/09/06","21:01:23","AMMA06",27827.000,"cc",28324.545,6.00,2832.455,1,6,0.100,17286.000,0.200,9154.000,0.300,1254.000,0.500,83.000,1.000,50.000,5.000,0
"07/09/06","21:01:29","AMMA06",27730.000,"cc",28314.322,6.00,2831.432,1,6,0.100,17194.000,0.200,9195.000,0.300,1190.000,0.500,100.000,1.000,51.000,5.000,0
"07/09/06","21:01:35","AMMA06",27569.000,"cc",28336.180,6.00,2833.618,1,6,0.100,17098.000,0.200,9189.000,0.300,1135.000,0.500,94.000,1.000,53.000,5.000,0
"07/09/06","21:01:41","AMMA06",28054.000,"cc",28302.117,6.00,2830.212,1,6,0.100,17460.000,0.200,9288.000,0.300,1164.000,0.500,91.000,1.000,51.000,5.000,0
"07/09/06","21:01:47","AMMA06",27556.000,"cc",28310.232,6.00,2831.023,1,6,0.100,17043.000,0.200,9272.000,0.300,1113.000,0.500,78.000,1.000,50.000,5.000,0
"07/09/06","21:01:53","AMMA06",28192.000,"cc",28374.453,6.00,2837.446,1,6,0.100,17505.000,0.200,9373.000,0.300,1179.000,0.500,85.000,1.000,50.000,5.000,0
"07/09/06","21:01:59","AMMA06",27402.000,"cc",28312.188,6.00,2831.219,1,6,0.100,17191.000,0.200,8968.000,0.300,1095.000,0.500,96.000,1.000,52.000,5.000,0
"07/09/06","21:02:05","AMMA06",27720.000,"cc",28271.297,6.00,2827.130,1,6,0.100,17238.000,0.200,9178.000,0.300,1174.000,0.500,91.000,1.000,39.000,5.000,0
"07/09/06","21:02:11","AMMA06",27780.000,"cc",28332.010,6.00,2833.201,1,6,0.100,17413.000,0.200,9064.000,0.300,1157.000,0.500,97.000,1.000,49.000,5.000,0
"07/09/06","21:02:17","AMMA06",27937.000,"cc",28344.559,6.00,2834.456,1,6,0.100,17413.000,0.200,9201.000,0.300,1173.000,0.500,99.000,1.000,51.000,5.000,0
"07/09/06","21:02:23","AMMA06",27888.000,"cc",28280.455,6.00,2828.046,1,6,0.100,17128.000,0.200,9390.000,0.300,1208.000,0.500,111.000,1.000,51.000,5.000,0
"07/09/06","21:02:29","AMMA06",27935.000,"cc",28279.643,6.00,2827.964,1,6,0.100,17220.000,0.200,9334.000,0.300,1192.000,0.500,132.000,1.000,57.000,5.000,0
"07/09/06","21:02:35","AMMA06",27031.000,"cc",28336.889,6.00,2833.689,1,6,0.100,16891.000,0.200,8862.000,0.300,1114.000,0.500,120.000,1.000,44.000,5.000,0
"07/09/06","21:02:41","AMMA06",27309.000,"cc",28330.244,6.00,2833.025,1,6,0.100,16935.000,0.200,9164.000,0.300,1090.000,0.500,73.000,1.000,47.000,5.000,0
"07/09/06","21:02:47","AMMA06",27327.000,"cc",28357.256,6.00,2835.726,1,6,0.100,16884.000,0.200,9172.000,0.300,1130.000,0.500,100.000,1.000,41.000,5.000,0
"07/09/06","21:02:53","AMMA06",26957.000,"cc",28264.234,6.00,2826.424,1,6,0.100,16736.000,0.200,9039.000,0.300,1024.000,0.500,115.000,1.000,43.000,5.000,0
"07/09/06","21:02:59","AMMA06",27232.000,"cc",28296.412,6.00,2829.641,1,6,0.100,16886.000,0.200,9107.000,0.300,1111.000,0.500,83.000,1.000,45.000,5.000,0
"07/09/06","21:03:05","AMMA06",27130.000,"cc",28317.283,6.00,2831.729,1,6,0.100,16806.000,0.200,9075.000,0.300,1136.000,0.500,80.000,1.000,33.000,5.000,0
"07/09/06","21:03:11","AMMA06",27113.000,"cc",28368.455,6.00,2836.846,1,6,0.100,16676.000,0.200,9190.000,0.300,1101.000,0.500,92.000,1.000,54.000,5.000,0
"07/09/06","21:03:17","AMMA06",27047.000,"cc",28326.764,6.00,2832.677,1,6,0.100,16715.000,0.200,9034.000,0.300,1159.000,0.500,89.000,1.000,50.000,5.000,0
"07/09/06","21:03:23","AMMA06",26950.000,"cc",28278.160,6.00,2827.816,1,6,0.100,16680.000,0.200,9018.000,0.300,1117.000,0.500,87.000,1.000,48.000,5.000,0
"07/09/06","21:03:29","AMMA06",26971.000,"cc",28336.434,6.00,2833.644,1,6,0.100,16774.000,0.200,8953.000,0.300,1109.000,0.500,98.000,1.000,37.000,5.000,0
"07/09/06","21:03:35","AMMA06",26550.000,"cc",28328.982,6.00,2832.898,1,6,0.100,16629.000,0.200,8763.000,0.300,1045.000,0.500,80.000,1.000,33.000,5.000,0
"07/09/06","21:03:41","AMMA06",27206.000,"cc",28287.891,6.00,2828.789,1,6,0.100,16816.000,0.200,9157.000,0.300,1094.000,0.500,94.000,1.000,45.000,5.000,0
"07/09/06","21:03:47","AMMA06",26854.000,"cc",28326.356,6.00,2832.636,1,6,0.100,16584.000,0.200,9086.000,0.300,1045.000,0.500,96.000,1.000,43.000,5.000,0
"07/09/06","21:03:53","AMMA06",27098.000,"cc",28292.594,6.00,2829.260,1,6,0.100,16757.000,0.200,9077.000,0.300,1127.000,0.500,91.000,1.000,46.000,5.000,0
"07/09/06","21:03:59","AMMA06",26958.000,"cc",28351.609,6.00,2835.161,1,6,0.100,16763.000,0.200,9030.000,0.300,1032.000,0.500,94.000,1.000,39.000,5.000,0
"07/09/06","21:04:05","AMMA06",26644.000,"cc",28323.572,6.00,2832.357,1,6,0.100,16487.000,0.200,8938.000,0.300,1078.000,0.500,101.000,1.000,40.000,5.000,0
"07/09/06","21:04:11","AMMA06",26899.000,"cc",28367.305,6.00,2836.731,1,6,0.100,16718.000,0.200,8966.000,0.300,1077.000,0.500,93.000,1.000,45.000,5.000,0
"07/09/06","21:04:17","AMMA06",27010.000,"cc",28271.373,6.00,2827.138,1,6,0.100,16646.000,0.200,9090.000,0.300,1131.000,0.500,101.000,1.000,42.000,5.000,0
"07/09/06","21:04:23","AMMA06",27174.000,"cc",28274.850,6.00,2827.485,1,6,0.100,16832.000,0.200,9107.000,0.300,1079.000,0.500,110.000,1.000,46.000,5.000,0
"07/09/06","21:04:29","AMMA06",27142.000,"cc",28330.088,6.00,2833.009,1,6,0.100,16784.000,0.200,9066.000,0.300,1174.000,0.500,88.000,1.000,30.000,5.000,0
"07/09/06","21:04:35","AMMA06",26975.000,"cc",28273.783,6.00,2827.378,1,6,0.100,16803.000,0.200,8936.000,0.300,1067.000,0.500,119.000,1.000,50.000,5.000,0
"07/09/06","21:04:41","AMMA06",27013.000,"cc",28344.565,6.00,2834.457,1,6,0.100,16737.000,0.200,9030.000,0.300,1117.000,0.500,84.000,1.000,45.000,5.000,0
"07/09/06","21:04:47","AMMA06",27002.000,"cc",28351.422,6.00,2835.142,1,6,0.100,16593.000,0.200,9179.000,0.300,1076.000,0.500,106.000,1.000,48.000,5.000,0
"07/09/06","21:04:53","AMMA06",27242.000,"cc",28308.711,6.00,2830.871,1,6,0.100,16982.000,0.200,9034.000,0.300,1080.000,0.500,102.000,1.000,44.000,5.000,0
"07/09/06","21:04:59","AMMA06",27048.000,"cc",28315.154,6.00,2831.516,1,6,0.100,16762.000,0.200,9053.000,0.300,1076.000,0.500,106.000,1.000,51.000,5.000,0
"07/09/06","21:05:05","AMMA06",27205.000,"cc",28276.078,6.00,2827.608,1,6,0.100,16997.000,0.200,8992.000,0.300,1071.000,0.500,97.000,1.000,48.000,5.000,0
"07/09/06","21:05:11","AMMA06",27344.000,"cc",28348.590,6.00,2834.859,1,6,0.100,16895.000,0.200,9209.000,0.300,1109.000,0.500,94.000,1.000,37.000,5.000,0
"07/09/06","21:05:17","AMMA06",27225.000,"cc",28294.713,6.00,2829.471,1,6,0.100,16904.000,0.200,9102.000,0.300,1106.000,0.500,78.000,1.000,35.000,5.000,0
"07/09/06","21:05:23","AMMA06",26999.000,"cc",28327.113,6.00,2832.711,1,6,0.100,16667.000,0.200,9140.000,0.300,1061.000,0.500,99.000,1.000,32.000,5.000,0
"07/09/06","21:05:29","AMMA06",27426.000,"cc",28317.000,6.00,2831.700,1,6,0.100,17111.000,0.200,9069.000,0.300,1099.000,0.500,106.000,1.000,41.000,5.000,0
"07/09/06","21:05:35","AMMA06",27548.000,"cc",28330.053,6.00,2833.005,1,6,0.100,17136.000,0.200,9210.000,0.300,1073.000,0.500,86.000,1.000,43.000,5.000,0
"07/09/06","21:05:41","AMMA06",27302.000,"cc",28346.090,6.00,2834.609,1,6,0.100,16892.000,0.200,9231.000,0.300,1049.000,0.500,78.000,1.000,52.000,5.000,0
"07/09/06","21:05:47","AMMA06",27250.000,"cc",28334.381,6.00,2833.438,1,6,0.100,16981.000,0.200,9086.000,0.300,1052.000,0.500,93.000,1.000,38.000,5.000,0
"07/09/06","21:05:53","AMMA06",27065.000,"cc",28260.699,6.00,2826.070,1,6,0.100,16932.000,0.200,8956.000,0.300,1050.000,0.500,88.000,1.000,39.000,5.000,0
"07/09/06","21:05:59","AMMA06",27217.000,"cc",28296.758,6.00,2829.676,1,6,0.100,17045.000,0.200,9013.000,0.300,1018.000,0.500,95.000,1.000,46.000,5.000,0
"07/09/06","21:06:05","AMMA06",26964.000,"cc",28325.928,6.00,2832.593,1,6,0.100,16913.000,0.200,8870.000,0.300,1014.000,0.500,114.000,1.000,53.000,5.000,0
"07/09/06","21:06:11","AMMA06",27266.000,"cc",28331.141,6.00,2833.114,1,6,0.100,16992.000,0.200,9103.000,0.300,1038.000,0.500,97.000,1.000,36.000,5.000,0
"07/09/06","21:06:17","AMMA06",27105.000,"cc",28301.680,6.00,2830.168,1,6,0.100,16919.000,0.200,8987.000,0.300,1050.000,0.500,98.000,1.000,51.000,5.000,0
"07/09/06","21:06:23","AMMA06",27232.000,"cc",28292.750,6.00,2829.275,1,6,0.100,16985.000,0.200,9081.000,0.300,1036.000,0.500,87.000,1.000,43.000,5.000,0
"07/09/06","21:06:29","AMMA06",27410.000,"cc",28354.537,6.00,2835.454,1,6,0.100,17022.000,0.200,9172.000,0.300,1079.000,0.500,94.000,1.000,43.000,5.000,0
"07/09/06","21:06:35","AMMA06",27377.000,"cc",28289.674,6.00,2828.968,1,6,0.100,17062.000,0.200,8972.000,0.300,1152.000,0.500,133.000,1.000,58.000,5.000,0
"07/09/06","21:06:41","AMMA06",27276.000,"cc",28362.842,6.00,2836.284,1,6,0.100,16907.000,0.200,9032.000,0.300,1182.000,0.500,124.000,1.000,31.000,5.000,0
"07/09/06","21:06:47","AMMA06",27105.000,"cc",28328.475,6.00,2832.848,1,6,0.100,16797.000,0.200,9079.000,0.300,1076.000,0.500,112.000,1.000,41.000,5.000,0
"07/09/06","21:06:53","AMMA06",26931.000,"cc",28317.500,6.00,2831.750,1,6,0.100,16786.000,0.200,8955.000,0.300,1057.000,0.500,92.000,1.000,41.000,5.000,0
"07/09/06","21:06:59","AMMA06",27133.000,"cc",28344.246,6.00,2834.425,1,6,0.100,16728.000,0.200,9200.000,0.300,1070.000,0.500,87.000,1.000,48.000,5.000,0
"07/09/06","21:07:05","AMMA06",27589.000,"cc",28292.061,6.00,2829.206,1,6,0.100,17061.000,0.200,9324.000,0.300,1055.000,0.500,110.000,1.000,39.000,5.000,0
"07/09/06","21:07:11","AMMA06",26892.000,"cc",28311.717,6.00,2831.172,1,6,0.100,16606.000,0.200,8971.000,0.300,1159.000,0.500,102.000,1.000,54.000,5.000,0
"07/09/06","21:07:17","AMMA06",27393.000,"cc",28327.227,6.00,2832.723,1,6,0.100,16894.000,0.200,9323.000,0.300,1053.000,0.500,85.000,1.000,38.000,5.000,0
"07/09/06","21:07:23","AMMA06",26894.000,"cc",28315.545,6.00,2831.555,1,6,0.100,16458.000,0.200,9189.000,0.300,1114.000,0.500,93.000,1.000,40.000,5.000,0
"07/09/06","21:07:29","AMMA06",27163.000,"cc",28321.416,6.00,2832.142,1,6,0.100,16683.000,0.200,9228.000,0.300,1113.000,0.500,85.000,1.000,54.000,5.000,0
"07/09/06","21:07:35","AMMA06",27257.000,"cc",28349.838,6.00,2834.984,1,6,0.100,16731.000,0.200,9298.000,0.300,1094.000,0.500,100.000,1.000,34.000,5.000,0
"07/09/06","21:07:41","AMMA06",27614.000,"cc",28324.512,6.00,2832.451,1,6,0.100,17026.000,0.200,9367.000,0.300,1082.000,0.500,95.000,1.000,44.000,5.000,0
"07/09/06","21:07:47","AMMA06",27273.000,"cc",28272.166,6.00,2827.217,1,6,0.100,16860.000,0.200,9220.000,0.300,1057.000,0.500,105.000,1.000,31.000,5.000,0
"07/09/06","21:07:53","AMMA06",27273.000,"cc",28303.131,6.00,2830.313,1,6,0.100,16796.000,0.200,9189.000,0.300,1132.000,0.500,99.000,1.000,57.000,5.000,0
"07/09/06","21:07:59","AMMA06",27264.000,"cc",28368.969,6.00,2836.897,1,6,0.100,16784.000,0.200,9273.000,0.300,1062.000,0.500,100.000,1.000,45.000,5.000,0
"07/09/06","21:08:05","AMMA06",27299.000,"cc",28280.811,6.00,2828.081,1,6,0.100,16799.000,0.200,9174.000,0.300,1151.000,0.500,118.000,1.000,57.000,5.000,0
"07/09/06","21:08:11","AMMA06",27447.000,"cc",28283.199,6.00,2828.320,1,6,0.100,16807.000,0.200,9372.000,0.300,1120.000,0.500,99.000,1.000,49.000,5.000,0
"07/09/06","21:08:17","AMMA06",27291.000,"cc",28337.430,6.00,2833.743,1,6,0.100,16816.000,0.200,9260.000,0.300,1062.000,0.500,105.000,1.000,48.000,5.000,0
"07/09/06","21:08:23","AMMA06",27444.000,"cc",28352.338,6.00,2835.234,1,6,0.100,16786.000,0.200,9359.000,0.300,1141.000,0.500,103.000,1.000,55.000,5.000,0
"07/09/06","21:08:29","AMMA06",27261.000,"cc",28313.135,6.00,2831.314,1,6,0.100,16745.000,0.200,9233.000,0.300,1135.000,0.500,97.000,1.000,51.000,5.000,0
"07/09/06","21:08:35","AMMA06",27044.000,"cc",28305.766,6.00,2830.577,1,6,0.100,16499.000,0.200,9273.000,0.300,1128.000,0.500,92.000,1.000,52.000,5.000,0
"07/09/06","21:08:41","AMMA06",27373.000,"cc",28330.289,6.00,2833.029,1,6,0.100,16748.000,0.200,9388.000,0.300,1107.000,0.500,78.000,1.000,52.000,5.000,0
"07/09/06","21:08:47","AMMA06",27031.000,"cc",28332.016,6.00,2833.202,1,6,0.100,16598.000,0.200,9145.000,0.300,1154.000,0.500,92.000,1.000,42.000,5.000,0
"07/09/06","21:08:53","AMMA06",27026.000,"cc",28328.402,6.00,2832.840,1,6,0.100,16495.000,0.200,9268.000,0.300,1129.000,0.500,93.000,1.000,41.000,5.000,0
"07/09/06","21:08:59","AMMA06",27148.000,"cc",28326.490,6.00,2832.649,1,6,0.100,16293.000,0.200,9494.000,0.300,1201.000,0.500,111.000,1.000,49.000,5.000,0
"07/09/06","21:09:05","AMMA06",27070.000,"cc",28290.602,6.00,2829.060,1,6,0.100,16339.000,0.200,9438.000,0.300,1138.000,0.500,110.000,1.000,45.000,5.000,0
"07/09/06","21:09:11","AMMA06",26578.000,"cc",28283.104,6.00,2828.311,1,6,0.100,16142.000,0.200,9243.000,0.300,1065.000,0.500,85.000,1.000,43.000,5.000,0
"07/09/06","21:09:17","AMMA06",26789.000,"cc",28300.498,6.00,2830.050,1,6,0.100,16076.000,0.200,9441.000,0.300,1151.000,0.500,78.000,1.000,43.000,5.000,0
"07/09/06","21:09:23","AMMA06",26987.000,"cc",28295.127,6.00,2829.513,1,6,0.100,16245.000,0.200,9439.000,0.300,1166.000,0.500,93.000,1.000,44.000,5.000,0
"07/09/06","21:09:29","AMMA06",26904.000,"cc",28341.039,6.00,2834.104,1,6,0.100,16204.000,0.200,9423.000,0.300,1135.000,0.500,96.000,1.000,46.000,5.000,0
"07/09/06","21:09:35","AMMA06",26546.000,"cc",28348.906,6.00,2834.891,1,6,0.100,16049.000,0.200,9203.000,0.300,1153.000,0.500,98.000,1.000,43.000,5.000,0
"07/09/06","21:09:41","AMMA06",26435.000,"cc",28304.828,6.00,2830.483,1,6,0.100,15875.000,0.200,9249.000,0.300,1164.000,0.500,99.000,1.000,48.000,5.000,0
"07/09/06","21:09:47","AMMA06",26731.000,"cc",28340.723,6.00,2834.073,1,6,0.100,15942.000,0.200,9463.000,0.300,1180.000,0.500,107.000,1.000,39.000,5.000,0
"07/09/06","21:09:53","AMMA06",26579.000,"cc",28325.824,6.00,2832.583,1,6,0.100,16020.000,0.200,9249.000,0.300,1180.000,0.500,85.000,1.000,45.000,5.000,0
"07/09/06","21:09:59","AMMA06",26882.000,"cc",28328.182,6.00,2832.818,1,6,0.100,16234.000,0.200,9351.000,0.300,1152.000,0.500,97.000,1.000,48.000,5.000,0
"07/09/06","21:10:05","AMMA06",26968.000,"cc",28347.828,6.00,2834.783,1,6,0.100,16154.000,0.200,9474.000,0.300,1186.000,0.500,107.000,1.000,47.000,5.000,0
"07/09/06","21:10:11","AMMA06",26567.000,"cc",28327.430,6.00,2832.743,1,6,0.100,15979.000,0.200,9331.000,0.300,1121.000,0.500,94.000,1.000,42.000,5.000,0
"07/09/06","21:10:17","AMMA06",27023.000,"cc",28310.740,6.00,2831.074,1,6,0.100,16354.000,0.200,9347.000,0.300,1154.000,0.500,116.000,1.000,52.000,5.000,0
"07/09/06","21:10:23","AMMA06",26672.000,"cc",28274.285,6.00,2827.429,1,6,0.100,16068.000,0.200,9314.000,0.300,1156.000,0.500,96.000,1.000,38.000,5.000,0
"07/09/06","21:10:29","AMMA06",26903.000,"cc",28308.672,6.00,2830.867,1,6,0.100,16061.000,0.200,9505.000,0.300,1161.000,0.500,131.000,1.000,45.000,5.000,0
"07/09/06","21:10:35","AMMA06",26836.000,"cc",28349.686,6.00,2834.969,1,6,0.100,16094.000,0.200,9455.000,0.300,1163.000,0.500,82.000,1.000,42.000,5.000,0
"07/09/06","21:10:41","AMMA06",26868.000,"cc",28288.648,6.00,2828.865,1,6,0.100,16176.000,0.200,9365.000,0.300,1167.000,0.500,102.000,1.000,58.000,5.000,0
"07/09/06","21:10:47","AMMA06",26596.000,"cc",28325.799,6.00,2832.580,1,6,0.100,15989.000,0.200,9350.000,0.300,1137.000,0.500,77.000,1.000,43.000,5.000,0
"07/09/06","21:10:53","AMMA06",27160.000,"cc",28287.779,6.00,2828.778,1,6,0.100,16397.000,0.200,9508.000,0.300,1118.000,0.500,92.000,1.000,45.000,5.000,0
"07/09/06","21:10:59","AMMA06",26674.000,"cc",28317.596,6.00,2831.760,1,6,0.100,15834.000,0.200,9552.000,0.300,1155.000,0.500,87.000,1.000,46.000,5.000,0
"07/09/06","21:11:05","AMMA06",26798.000,"cc",28328.281,6.00,2832.828,1,6,0.100,15957.000,0.200,9461.000,0.300,1236.000,0.500,95.000,1.000,49.000,5.000,0
"07/09/06","21:11:11","AMMA06",26867.000,"cc",28294.799,6.00,2829.480,1,6,0.100,16012.000,0.200,9568.000,0.300,1162.000,0.500,86.000,1.000,39.000,5.000,0
"07/09/06","21:11:17","AMMA06",26718.000,"cc",28342.537,6.00,2834.254,1,6,0.100,16057.000,0.200,9353.000,0.300,1161.000,0.500,91.000,1.000,56.000,5.000,0
"07/09/06","21:11:23","AMMA06",26784.000,"cc",28331.557,6.00,2833.156,1,6,0.100,16092.000,0.200,9396.000,0.300,1145.000,0.500,106.000,1.000,45.000,5.000,0
"07/09/06","21:11:29","AMMA06",26614.000,"cc",28283.289,6.00,2828.329,1,6,0.100,16032.000,0.200,9330.000,0.300,1113.000,0.500,103.000,1.000,36.000,5.000,0
"07/09/06","21:11:35","AMMA06",26430.000,"cc",28274.518,6.00,2827.452,1,6,0.100,15833.000,0.200,9331.000,0.300,1115.000,0.500,103.000,1.000,48.000,5.000,0
"07/09/06","21:11:41","AMMA06",26737.000,"cc",28312.197,6.00,2831.220,1,6,0.100,16002.000,0.200,9421.000,0.300,1170.000,0.500,85.000,1.000,59.000,5.000,0
"07/09/06","21:11:47","AMMA06",26766.000,"cc",28306.287,6.00,2830.629,1,6,0.100,15977.000,0.200,9469.000,0.300,1177.000,0.500,107.000,1.000,36.000,5.000,0
"07/09/06","21:11:53","AMMA06",26518.000,"cc",28352.213,6.00,2835.221,1,6,0.100,15956.000,0.200,9287.000,0.300,1154.000,0.500,86.000,1.000,35.000,5.000,0
"07/09/06","21:11:59","AMMA06",26696.000,"cc",28357.799,6.00,2835.780,1,6,0.100,15971.000,0.200,9365.000,0.300,1224.000,0.500,86.000,1.000,50.000,5.000,0
"07/09/06","21:12:05","AMMA06",26820.000,"cc",28293.492,6.00,2829.349,1,6,0.100,15996.000,0.200,9503.000,0.300,1160.000,0.500,102.000,1.000,59.000,5.000,0
"07/09/06","21:12:11","AMMA06",26930.000,"cc",28302.523,6.00,2830.252,1,6,0.100,16276.000,0.200,9415.000,0.300,1113.000,0.500,87.000,1.000,39.000,5.000,0
"07/09/06","21:12:17","AMMA06",26764.000,"cc",28322.078,6.00,2832.208,1,6,0.100,16108.000,0.200,9374.000,0.300,1152.000,0.500,85.000,1.000,45.000,5.000,0
"07/09/06","21:12:23","AMMA06",26675.000,"cc",28302.920,6.00,2830.292,1,6,0.100,16248.000,0.200,9207.000,0.300,1087.000,0.500,93.000,1.000,40.000,5.000,0
"07/09/06","21:12:29","AMMA06",26547.000,"cc",28358.982,6.00,2835.898,1,6,0.100,16020.000,0.200,9218.000,0.300,1157.000,0.500,100.000,1.000,52.000,5.000,0
"07/09/06","21:12:35","AMMA06",26968.000,"cc",28312.264,6.00,2831.227,1,6,0.100,16325.000,0.200,9316.000,0.300,1193.000,0.500,90.000,1.000,44.000,5.000,0
"07/09/06","21:12:41","AMMA06",26844.000,"cc",28255.961,6.00,2825.596,1,6,0.100,16186.000,0.200,9309.000,0.300,1183.000,0.500,120.000,1.000,46.000,5.000,0
"07/09/06","21:12:47","AMMA06",27442.000,"cc",28297.889,6.00,2829.789,1,6,0.100,16564.000,0.200,9340.000,0.300,1295.000,0.500,172.000,1.000,71.000,5.000,0
"07/09/06","21:12:53","AMMA06",26735.000,"cc",28371.375,6.00,2837.138,1,6,0.100,16276.000,0.200,9182.000,0.300,1120.000,0.500,111.000,1.000,46.000,5.000,0
"07/09/06","21:12:59","AMMA06",26937.000,"cc",28296.533,6.00,2829.654,1,6,0.100,16370.000,0.200,9254.000,0.300,1147.000,0.500,116.000,1.000,50.000,5.000,0
"07/09/06","21:13:05","AMMA06",26847.000,"cc",28294.352,6.00,2829.435,1,6,0.100,16189.000,0.200,9369.000,0.300,1129.000,0.500,95.000,1.000,65.000,5.000,0
"07/09/06","21:13:11","AMMA06",26616.000,"cc",28313.092,6.00,2831.309,1,6,0.100,15925.000,0.200,9381.000,0.300,1153.000,0.500,101.000,1.000,56.000,5.000,0
"07/09/06","21:13:17","AMMA06",26623.000,"cc",28372.084,6.00,2837.209,1,6,0.100,15928.000,0.200,9483.000,0.300,1084.000,0.500,81.000,1.000,47.000,5.000,0
"07/09/06","21:13:23","AMMA06",26449.000,"cc",28281.924,6.00,2828.193,1,6,0.100,15854.000,0.200,9305.000,0.300,1147.000,0.500,93.000,1.000,50.000,5.000,0
"07/09/06","21:13:29","AMMA06",26554.000,"cc",28301.195,6.00,2830.120,1,6,0.100,15941.000,0.200,9305.000,0.300,1173.000,0.500,98.000,1.000,37.000,5.000,0
"07/09/06","21:13:35","AMMA06",26640.000,"cc",28381.283,6.00,2838.128,1,6,0.100,15808.000,0.200,9505.000,0.300,1177.000,0.500,99.000,1.000,51.000,5.000,0
"07/09/06","21:13:41","AMMA06",26656.000,"cc",28323.574,6.00,2832.358,1,6,0.100,15910.000,0.200,9463.000,0.300,1124.000,0.500,94.000,1.000,65.000,5.000,0
"07/09/06","21:13:47","AMMA06",26594.000,"cc",28313.473,6.00,2831.347,1,6,0.100,15860.000,0.200,9476.000,0.300,1115.000,0.500,94.000,1.000,49.000,5.000,0
"07/09/06","21:13:53","AMMA06",26365.000,"cc",28291.029,6.00,2829.103,1,6,0.100,15907.000,0.200,9166.000,0.300,1144.000,0.500,102.000,1.000,46.000,5.000,0
"07/09/06","21:13:59","AMMA06",26703.000,"cc",28318.178,6.00,2831.818,1,6,0.100,15995.000,0.200,9444.000,0.300,1099.000,0.500,114.000,1.000,51.000,5.000,0
"07/09/06","21:14:05","AMMA06",26837.000,"cc",28347.469,6.00,2834.747,1,6,0.100,15989.000,0.200,9549.000,0.300,1134.000,0.500,116.000,1.000,49.000,5.000,0
"07/09/06","21:14:11","AMMA06",26521.000,"cc",28356.295,6.00,2835.630,1,6,0.100,15946.000,0.200,9332.000,0.300,1080.000,0.500,107.000,1.000,56.000,5.000,0
"07/09/06","21:14:17","AMMA06",26650.000,"cc",28326.471,6.00,2832.647,1,6,0.100,15775.000,0.200,9575.000,0.300,1149.000,0.500,101.000,1.000,50.000,5.000,0
"07/09/06","21:14:23","AMMA06",26752.000,"cc",28225.504,6.00,2822.551,1,6,0.100,16120.000,0.200,9325.000,0.300,1155.000,0.500,98.000,1.000,54.000,5.000,0
"07/09/06","21:14:29","AMMA06",26927.000,"cc",28296.934,6.00,2829.694,1,6,0.100,16159.000,0.200,9485.000,0.300,1122.000,0.500,110.000,1.000,51.000,5.000,0
"07/09/06","21:14:35","AMMA06",26926.000,"cc",28387.164,6.00,2838.717,1,6,0.100,16131.000,0.200,9463.000,0.300,1166.000,0.500,111.000,1.000,55.000,5.000,0